Location: Newark
(25.4800°N, 85.7200°E)
Time: 08:51:25
(UTC+00:00)

Transit 4A - Pass Details

Date: 27 August 2019
Orbit: 865 x 979 km, 66.8° (Epoch: 24 September)

Event Time Altitude Azimuth Distance (km) Brightness Sun altitude
Rises 11:36:19 0° 233° (SW) 3,648 11.8 13.8°
Reaches altitude 10° 11:39:18 10° 245° (WSW) 2,713 11.6 13.1°
Maximum altitude 11:44:30 26° 300° (WNW) 1,817 10.8 12.0°
Drops below altitude 10° 11:49:44 10° 356° (N) 2,727 10.5 10.8°
Sets 11:52:46 0° 8° (N) 3,670 11.0 10.1°
